#timestamp,LO_Frequency,Hit,StdDev 
1674637215.6,286046995.2,Y
1674637235.5,286046997.6,P
1674637255.3,286046997.5,P
1674637275.1,286046997.9,N
1674637295.9,286046998.0,N
1674637315.7,286046995.6,Y
1674637335.5,286046997.2,P
1674637355.4,286046999.1,N
1674637375.2,286046999.2,N
1674637395.0,286046997.0,Y
1674637395.9,286046997.0,P
1674637415.8,286046996.6,P
1674637435.6,286046997.0,P
1674637455.4,286046996.9,Y
1674637475.3,286046999.8,P
1674637495.1,286047002.7,N
1674637515.8,286047000.6,N
1674637535.7,286046998.6,N
1674637555.5,286047000.7,N
1674637575.3,286046998.4,N
1674637595.2,286047002.8,N
1674637615.0,286047002.2,N
1674637615.9,286047002.2,N
1674637635.7,286047002.3,N
1674637655.6,286047001.5,N
1674637675.4,286047002.4,N
1674637695.2,286047001.1,N
1674637715.1,286047001.0,N
1674637716.0,286047001.0,N
1674637735.8,286047001.2,N
1674637755.7,286046998.5,N
1674637775.5,286047001.0,N
1674637795.3,286046998.4,N
1674637815.1,286047000.7,N
1674637835.9,286047001.2,N
1674637855.7,286047001.0,N
1674637875.6,286047000.8,N
1674637895.4,286047000.0,N
1674637915.2,286047002.3,N
1674637935.1,286046968.7,Y
1674637936.0,286046968.7,P
1674637955.8,286047003.4,N
1674637975.6,286047021.7,N
1674637995.5,286047033.5,N
1674638015.3,286047045.8,N
1674638035.1,286047052.8,N
1674638055.9,286047058.6,N
1674638075.7,286047062.5,N
1674638095.5,286047062.2,N
1674638115.4,286047065.4,N
1674638135.2,286047069.4,N
1674638155.0,286047073.2,N
1674638155.9,286047073.2,N
1674638175.8,286047074.8,N
1674638195.6,286047076.0,N
1674638215.4,286047077.8,N
1674638235.3,286047079.3,N
1674638255.1,286047080.4,N
1674638275.8,286047084.1,N
1674638295.7,286047084.6,N
1674638315.5,286047087.3,N
1674638335.3,286047087.2,N
1674638355.2,286047086.2,N
1674638375.0,286047088.6,N
1674638375.9,286047088.6,N
1674638395.7,286047088.2,N
1674638415.6,286047090.8,N
1674638435.4,286047089.4,N
1674638455.2,286047089.4,N
1674638475.1,286047092.1,Y
1674638476.0,286047092.1,P
1674638495.8,286047027.3,N
1674638515.6,286047028.9,N
1674638535.5,286047030.0,N
1674638555.3,286047029.4,N
1674638575.1,286047030.2,N
1674638595.9,286047030.9,N
1674638615.7,286047032.1,N
1674638635.5,286047034.8,N
1674638655.4,286047033.9,N
1674638675.2,286047035.9,N
1674638695.0,286047035.3,N
1674638696.0,286047035.3,N
1674638715.8,286047035.1,N
1674638735.6,286047035.5,N
1674638755.5,286047037.8,N
1674638775.3,286047036.6,N
1674638795.1,286047037.3,N
1674638815.9,286047037.0,N
1674638835.7,286047038.8,N
1674638855.5,286047036.8,N
1674638875.4,286047041.6,Y
1674638895.2,286047003.5,P
1674638915.0,286047000.5,N
1674638915.9,286047000.5,N
1674638935.8,286047002.9,N
1674638955.6,286047003.7,N
1674638975.4,286047005.0,N
1674638995.3,286047004.6,N
1674639015.1,286047004.7,N
1674639016.0,286047004.7,N
1674639035.8,286047004.4,N
1674639055.7,286047007.6,N
1674639075.5,286047004.9,N
1674639095.3,286047008.9,N
1674639115.2,286047007.6,N
1674639135.9,286047003.7,N
1674639155.7,286047003.9,N
1674639175.6,286047007.2,N
1674639195.4,286047012.8,N
1674639215.2,286047006.4,N
1674639235.1,286047012.0,N
1674639236.0,286047012.0,N
1674639255.8,286047008.9,N
1674639275.6,286047010.4,N
1674639295.5,286047012.8,N
1674639315.3,286047009.4,N
1674639335.1,286047012.2,N
1674639355.9,286047009.9,N
1674639375.7,286047018.3,N
1674639395.5,286047012.4,N
1674639415.4,286047014.7,N
1674639435.2,286047012.5,N
1674639455.0,286047017.2,Y
1674639455.9,286047017.2,P
1674639475.8,286047008.0,N
1674639495.6,286047011.9,N
1674639515.4,286047007.0,N
1674639535.3,286047003.1,N
1674639555.1,286047006.5,N
1674639575.8,286047004.0,N
1674639595.7,286047011.0,N
1674639615.5,286047010.7,N
1674639635.3,286047007.5,N
1674639655.2,286047009.8,N
1674639675.0,286047011.2,Y
1674639675.9,286047011.2,P
1674639695.8,286047005.5,P
1674639715.6,286047004.2,N
1674639735.4,286047004.0,N
1674639755.3,286047009.1,Y
1674639775.1,286047000.8,P
1674639776.0,286047000.8,N
1674639795.8,286046999.2,N
1674639815.7,286047002.0,N
1674639835.5,286046996.5,N
1674639855.3,286046999.6,N
1674639875.2,286046995.0,N
1674639895.9,286047004.6,N
1674639915.7,286047000.6,N
1674639935.6,286046999.1,N
1674639955.4,286047006.9,N
1674639975.2,286047001.0,N
1674639995.1,286047010.7,Y
1674639996.0,286047010.7,P
1674640015.8,286047000.4,N
1674640035.6,286047002.6,N
1674640055.5,286047002.7,N
1674640075.3,286047003.7,N
1674640095.1,286047007.1,N
1674640115.9,286047002.1,N
1674640135.7,286047006.0,N
1674640155.5,286047002.9,N
1674640175.4,286047007.2,N
1674640195.2,286047004.3,N
1674640215.0,286047007.4,N
1674640215.9,286047007.4,N
1674640235.8,286047017.9,Y
1674640255.6,286047001.6,P
1674640275.4,286047003.8,N
1674640295.3,286047002.2,N
1674640315.1,286047001.1,N
1674640335.8,286046998.2,N
1674640355.7,286047004.3,N
1674640375.5,286047003.2,N
1674640395.3,286047007.6,Y
1674640415.2,286047011.1,P
1674640435.0,286047009.5,N
1674640435.9,286047009.5,N
1674640455.7,286047008.8,N
1674640475.6,286047005.3,N
1674640495.4,286047006.4,N
1674640515.3,286047008.9,Y
1674640535.1,286047000.6,P
1674640536.0,286047000.6,N
1674640555.8,286046994.1,N
1674640575.7,286046997.4,N
1674640595.5,286046999.9,N
1674640615.3,286047001.7,N
1674640635.2,286047003.1,N
1674640655.9,286047008.0,N
1674640675.7,286046998.7,N
1674640695.6,286047004.2,N
1674640715.4,286047004.8,N
1674640735.2,286047007.9,N
1674640755.1,286047008.6,N
1674640756.0,286047008.6,N
1674640775.8,286047002.0,N
1674640795.6,286047005.0,N
